Location: Krasnoyarskiy Pitomnik
(51.1333°N, 71.6167°E)
Time: 09:38:26
(UTC+00:00)

CZ-2C R/B - Pass Details

Date: 22 October 2021
Orbit: 500 x 564 km, 97.8° (Epoch: 06 December)

Event Time Altitude Azimuth Distance (km) Brightness Sun altitude
Rises 23:37:33 0° 13° (NNE) 2,630 6.6 -21.4°
Reaches altitude 10° 23:39:40 10° 12° (NNE) 1,733 5.6 -21.1°
Maximum altitude 23:43:23 80° 286° (WNW) 518 2.5 -20.5°
Enters shadow 23:43:54 63° 217° (SW) 566 2.6 -20.4°
